SWR67E LSZH-LKPR

Flight info

Callsign SWR67E
Flight time 1h 2m
Altitude 39000
Route DEGES Z2 XEBIX N871 NENUM Z39 DOLUP DCT APRAQ
Aircraft A20N/M-SDE2E3FGHIJ1RWXY/LB1

Departure

Time 2026-05-05 16:34
Airport Zürich Airport (LSZH)

Arrival

Time 2026-05-05 17:37
Airport Václav Havel Airport Prague (LKPR)
Time Latitude Longitude Altitude Speed Heading
2026-05-05 16:01 47.45168 8.55936 1406 ft 0 kts 186°
2026-05-05 16:23 47.45191 8.55940 1406 ft 3 kts 186°
2026-05-05 16:23 47.45240 8.55961 1413 ft 4 kts 233°
2026-05-05 16:24 47.45247 8.55984 1411 ft 0 kts 276°
2026-05-05 16:28 47.45247 8.55979 1412 ft 2 kts 276°
2026-05-05 16:28 47.45251 8.55922 1411 ft 9 kts 275°
2026-05-05 16:28 47.45258 8.55817 1413 ft 12 kts 276°
2026-05-05 16:28 47.45266 8.55690 1406 ft 13 kts 275°
2026-05-05 16:29 47.45297 8.55563 1408 ft 14 kts 325°
2026-05-05 16:29 47.45390 8.55497 1411 ft 16 kts 335°
2026-05-05 16:29 47.45502 8.55442 1407 ft 17 kts 12°
2026-05-05 16:29 47.45523 8.55567 1406 ft 13 kts 95°
2026-05-05 16:30 47.45513 8.55704 1407 ft 14 kts 96°
2026-05-05 16:30 47.45501 8.55859 1414 ft 16 kts 96°
2026-05-05 16:30 47.45488 8.56037 1413 ft 18 kts 96°
2026-05-05 16:30 47.45486 8.56220 1408 ft 18 kts 69°
2026-05-05 16:31 47.45555 8.56352 1413 ft 16 kts 50°
2026-05-05 16:31 47.45595 8.56499 1414 ft 16 kts 92°
2026-05-05 16:31 47.45582 8.56658 1417 ft 16 kts 95°
2026-05-05 16:31 47.45570 8.56820 1420 ft 16 kts 96°
2026-05-05 16:32 47.45565 8.56962 1420 ft 11 kts 78°
2026-05-05 16:32 47.45573 8.56988 1421 ft 0 kts 55°
2026-05-05 16:33 47.45582 8.57001 1422 ft 4 kts 42°
2026-05-05 16:33 47.45621 8.57015 1424 ft 8 kts 357°
2026-05-05 16:33 47.45666 8.56958 1424 ft 8 kts 279°
2026-05-05 16:33 47.45667 8.56949 1424 ft 0 kts 275°
2026-05-05 16:34 47.45677 8.56780 1420 ft 50 kts 275°
2026-05-05 16:34 47.45739 8.55919 1410 ft 116 kts 276°
2026-05-05 16:34 47.45857 8.54497 1471 ft 157 kts 275°
2026-05-05 16:34 47.46010 8.52908 2072 ft 159 kts 276°
2026-05-05 16:35 47.46209 8.51227 2650 ft 170 kts 283°
2026-05-05 16:35 47.46396 8.49528 3414 ft 168 kts 275°
2026-05-05 16:35 47.46412 8.47742 3789 ft 187 kts 258°
2026-05-05 16:35 47.45729 8.45968 4214 ft 209 kts 227°
2026-05-05 16:36 47.44623 8.44481 4903 ft 220 kts 228°
2026-05-05 16:36 47.43769 8.42621 5933 ft 218 kts 244°
2026-05-05 16:36 47.43383 8.41225 6384 ft 226 kts 248°
2026-05-05 16:36 47.42874 8.38992 6773 ft 230 kts 251°
2026-05-05 16:37 47.42219 8.36885 6932 ft 223 kts 232°
2026-05-05 16:37 47.41076 8.35369 6991 ft 224 kts 207°
2026-05-05 16:37 47.39588 8.34768 7000 ft 224 kts 181°
2026-05-05 16:37 47.38063 8.35270 7060 ft 229 kts 154°
2026-05-05 16:38 47.36847 8.36809 7283 ft 236 kts 126°
2026-05-05 16:38 47.36267 8.39092 7936 ft 243 kts 97°
2026-05-05 16:38 47.36496 8.41563 8932 ft 248 kts 69°
2026-05-05 16:38 47.37526 8.43635 9791 ft 256 kts 38°
2026-05-05 16:39 47.39125 8.44792 10538 ft 261 kts 16°
2026-05-05 16:39 47.40839 8.45722 11293 ft 265 kts 30°
2026-05-05 16:39 47.42236 8.47496 12130 ft 266 kts 53°
2026-05-05 16:39 47.43355 8.49695 12599 ft 283 kts 54°
2026-05-05 16:40 47.44549 8.52127 12900 ft 307 kts 57°
2026-05-05 16:40 47.45531 8.55094 13205 ft 329 kts 75°
2026-05-05 16:40 47.45911 8.58486 13475 ft 349 kts 89°
2026-05-05 16:40 47.46025 8.62209 13888 ft 366 kts 89°
2026-05-05 16:41 47.46144 8.65969 14613 ft 371 kts 89°
2026-05-05 16:41 47.46273 8.69796 15369 ft 375 kts 89°
2026-05-05 16:41 47.46413 8.73669 16113 ft 379 kts 89°
2026-05-05 16:41 47.46557 8.77596 16840 ft 384 kts 89°
2026-05-05 16:42 47.46599 8.81558 17556 ft 387 kts 95°
2026-05-05 16:42 47.46269 8.85530 18248 ft 389 kts 104°
2026-05-05 16:42 47.45684 8.89452 18860 ft 393 kts 105°
2026-05-05 16:42 47.45100 8.93420 19514 ft 397 kts 105°
2026-05-05 16:43 47.44528 8.97426 20119 ft 401 kts 104°
2026-05-05 16:43 47.43953 9.01467 20749 ft 404 kts 104°
2026-05-05 16:43 47.43371 9.05550 21361 ft 408 kts 105°
2026-05-05 16:43 47.42781 9.09647 21976 ft 411 kts 105°
2026-05-05 16:44 47.42179 9.13815 22565 ft 415 kts 105°
2026-05-05 16:44 47.41728 9.18072 23176 ft 422 kts 97°
2026-05-05 16:44 47.41740 9.22424 23705 ft 429 kts 87°
2026-05-05 16:44 47.42237 9.26803 24211 ft 434 kts 79°
2026-05-05 16:45 47.42921 9.31172 24721 ft 437 kts 79°
2026-05-05 16:45 47.43596 9.35572 25228 ft 440 kts 79°
2026-05-05 16:45 47.44267 9.39999 25714 ft 444 kts 79°
2026-05-05 16:45 47.44940 9.44465 26176 ft 447 kts 79°
2026-05-05 16:46 47.45617 9.48969 26635 ft 450 kts 79°
2026-05-05 16:46 47.46296 9.53503 27058 ft 453 kts 79°
2026-05-05 16:46 47.46868 9.58093 27531 ft 454 kts 85°
2026-05-05 16:46 47.47065 9.62746 27935 ft 454 kts 93°
2026-05-05 16:47 47.46889 9.67419 28345 ft 455 kts 98°
2026-05-05 16:47 47.46622 9.72095 28742 ft 458 kts 97°
2026-05-05 16:47 47.46364 9.76806 29121 ft 461 kts 97°
2026-05-05 16:47 47.46105 9.81557 29504 ft 464 kts 97°
2026-05-05 16:48 47.45844 9.86315 29889 ft 466 kts 97°
2026-05-05 16:48 47.45577 9.91107 30220 ft 469 kts 97°
2026-05-05 16:48 47.45307 9.95919 30581 ft 471 kts 97°
2026-05-05 16:48 47.45032 10.00763 30923 ft 474 kts 97°
2026-05-05 16:49 47.44754 10.05613 31334 ft 474 kts 97°
2026-05-05 16:49 47.44474 10.10475 31776 ft 473 kts 97°
2026-05-05 16:49 47.44198 10.15242 32225 ft 472 kts 97°
2026-05-05 16:50 47.44044 10.17578 32438 ft 470 kts 99°
2026-05-05 16:50 47.43487 10.22327 32854 ft 468 kts 104°
2026-05-05 16:50 47.42843 10.27035 33246 ft 467 kts 104°
2026-05-05 16:50 47.42206 10.31738 33712 ft 466 kts 104°
2026-05-05 16:51 47.41573 10.36426 34087 ft 465 kts 104°
2026-05-05 16:51 47.40945 10.41115 34393 ft 465 kts 102°
2026-05-05 16:51 47.40657 10.45884 34667 ft 469 kts 91°
2026-05-05 16:51 47.40943 10.50680 34960 ft 470 kts 81°
2026-05-05 16:52 47.41797 10.55369 35204 ft 473 kts 71°
2026-05-05 16:52 47.42933 10.59927 35486 ft 473 kts 71°
2026-05-05 16:52 47.44063 10.64495 35750 ft 473 kts 71°
2026-05-05 16:52 47.45175 10.69024 36033 ft 473 kts 71°
2026-05-05 16:53 47.46291 10.73590 36300 ft 473 kts 71°
2026-05-05 16:53 47.47402 10.78148 36545 ft 473 kts 71°
2026-05-05 16:53 47.48516 10.82740 36803 ft 472 kts 71°
2026-05-05 16:53 47.49622 10.87312 37080 ft 472 kts 71°
2026-05-05 16:54 47.50727 10.91889 37325 ft 472 kts 71°
2026-05-05 16:54 47.51879 10.96669 37574 ft 471 kts 71°
2026-05-05 16:54 47.52928 11.01030 37776 ft 471 kts 71°
2026-05-05 16:54 47.54068 11.05781 38014 ft 470 kts 71°
2026-05-05 16:55 47.55134 11.10227 38203 ft 470 kts 71°
2026-05-05 16:55 47.56227 11.14784 38412 ft 470 kts 71°
2026-05-05 16:55 47.57318 11.19340 38591 ft 470 kts 71°
2026-05-05 16:55 47.58411 11.23913 38741 ft 469 kts 71°
2026-05-05 16:56 47.60581 11.33023 38820 ft 468 kts 71°
2026-05-05 16:56 47.62728 11.42116 38816 ft 466 kts 72°
2026-05-05 16:57 47.64614 11.51306 38814 ft 466 kts 74°
2026-05-05 16:57 47.66450 11.60535 38806 ft 466 kts 73°
2026-05-05 16:58 47.68312 11.69740 38801 ft 465 kts 73°
2026-05-05 16:58 47.70174 11.78926 38793 ft 464 kts 73°
2026-05-05 16:59 47.72044 11.88079 38778 ft 463 kts 68°
2026-05-05 16:59 47.75254 11.96322 38764 ft 460 kts 49°
2026-05-05 17:00 47.79882 12.02821 38779 ft 459 kts 38°
2026-05-05 17:00 47.84836 12.08897 38776 ft 461 kts 38°
2026-05-05 17:01 47.89742 12.14952 38778 ft 461 kts 38°
2026-05-05 17:01 47.94676 12.21052 38778 ft 460 kts 38°
2026-05-05 17:02 47.99645 12.27191 38777 ft 461 kts 38°
2026-05-05 17:02 48.04545 12.33256 38767 ft 460 kts 38°
2026-05-05 17:03 48.09509 12.39418 38765 ft 460 kts 38°
2026-05-05 17:03 48.14397 12.45515 38757 ft 460 kts 38°
2026-05-05 17:04 48.19418 12.51803 38748 ft 460 kts 38°
2026-05-05 17:04 48.24251 12.57732 38740 ft 458 kts 34°
2026-05-05 17:05 48.29403 12.63437 38743 ft 461 kts 34°
2026-05-05 17:05 48.34542 12.69182 38742 ft 460 kts 34°
2026-05-05 17:06 48.39646 12.74984 38741 ft 461 kts 38°
2026-05-05 17:06 48.44385 12.81533 38744 ft 461 kts 41°
2026-05-05 17:07 48.49096 12.88100 38744 ft 461 kts 41°
2026-05-05 17:07 48.53954 12.94399 38745 ft 460 kts 33°
2026-05-05 17:08 48.59393 12.99464 38753 ft 459 kts 27°
2026-05-05 17:08 48.64904 13.04211 38747 ft 459 kts 27°
2026-05-05 17:09 48.70447 13.09005 38747 ft 458 kts 27°
2026-05-05 17:09 48.75094 13.13022 38534 ft 458 kts 27°
2026-05-05 17:10 48.77830 13.15388 37992 ft 460 kts 27°
2026-05-05 17:10 48.80621 13.17804 37290 ft 460 kts 27°
2026-05-05 17:10 48.83400 13.20213 36581 ft 460 kts 27°
2026-05-05 17:10 48.86185 13.22631 35876 ft 461 kts 28°
2026-05-05 17:11 48.89025 13.24866 35145 ft 459 kts 21°
2026-05-05 17:11 48.91980 13.26725 34414 ft 460 kts 20°
2026-05-05 17:11 48.94947 13.28600 33640 ft 462 kts 20°
2026-05-05 17:11 48.97916 13.30492 32888 ft 462 kts 20°
2026-05-05 17:12 49.00888 13.32388 32118 ft 463 kts 20°
2026-05-05 17:12 49.03856 13.34283 31335 ft 463 kts 20°
2026-05-05 17:12 49.06825 13.36179 30721 ft 460 kts 20°
2026-05-05 17:12 49.09695 13.38150 30174 ft 457 kts 26°
2026-05-05 17:13 49.12419 13.40624 29576 ft 454 kts 33°
2026-05-05 17:13 49.14919 13.43541 28993 ft 450 kts 40°
2026-05-05 17:13 49.17233 13.46703 28443 ft 444 kts 40°
2026-05-05 17:13 49.19533 13.49824 27890 ft 439 kts 40°
2026-05-05 17:14 49.21816 13.52912 27345 ft 435 kts 40°
2026-05-05 17:14 49.24074 13.55974 26800 ft 431 kts 40°
2026-05-05 17:14 49.26305 13.59012 26263 ft 427 kts 40°
2026-05-05 17:14 49.28514 13.62028 25724 ft 424 kts 41°
2026-05-05 17:15 49.30703 13.65023 25195 ft 421 kts 41°
2026-05-05 17:15 49.32882 13.68010 24657 ft 418 kts 41°
2026-05-05 17:15 49.35043 13.70975 24104 ft 416 kts 41°
2026-05-05 17:15 49.37191 13.73927 23541 ft 415 kts 41°
2026-05-05 17:16 49.39337 13.76878 23003 ft 411 kts 41°
2026-05-05 17:16 49.41456 13.79796 22478 ft 407 kts 41°
2026-05-05 17:16 49.43554 13.82690 21944 ft 403 kts 41°
2026-05-05 17:16 49.45603 13.85519 21429 ft 400 kts 41°
2026-05-05 17:17 49.47663 13.88366 20895 ft 396 kts 41°
2026-05-05 17:17 49.49706 13.91193 20382 ft 393 kts 41°
2026-05-05 17:17 49.51735 13.94005 19856 ft 391 kts 41°
2026-05-05 17:17 49.53751 13.96801 19347 ft 388 kts 41°
2026-05-05 17:18 49.55748 13.99574 18830 ft 386 kts 41°
2026-05-05 17:18 49.57747 14.02354 18288 ft 386 kts 41°
2026-05-05 17:18 49.59729 14.05114 17758 ft 383 kts 41°
2026-05-05 17:18 49.61699 14.07858 17249 ft 380 kts 42°
2026-05-05 17:19 49.63705 14.10488 16723 ft 376 kts 35°
2026-05-05 17:19 49.65923 14.12576 16216 ft 372 kts 25°
2026-05-05 17:19 49.68313 14.14069 15715 ft 368 kts 17°
2026-05-05 17:19 49.70733 14.15312 15212 ft 366 kts 17°
2026-05-05 17:20 49.73102 14.16552 14727 ft 363 kts 17°
2026-05-05 17:20 49.75488 14.17809 14234 ft 361 kts 17°
2026-05-05 17:20 49.77868 14.19064 13745 ft 360 kts 17°
2026-05-05 17:20 49.80238 14.20313 13225 ft 358 kts 17°
2026-05-05 17:21 49.82581 14.21548 12870 ft 358 kts 17°
2026-05-05 17:21 49.83929 14.22257 12807 ft 367 kts 17°
2026-05-05 17:21 49.85080 14.22862 12766 ft 368 kts 17°
2026-05-05 17:22 49.87818 14.24306 12763 ft 366 kts 17°
2026-05-05 17:22 49.90226 14.25579 12765 ft 366 kts 17°
2026-05-05 17:22 49.92516 14.26790 12768 ft 367 kts 17°
2026-05-05 17:22 49.94961 14.27848 12773 ft 364 kts
2026-05-05 17:23 49.97465 14.27666 12762 ft 359 kts 344°
2026-05-05 17:23 49.99730 14.26190 12497 ft 353 kts 324°
2026-05-05 17:23 50.01525 14.23630 11861 ft 351 kts 306°
2026-05-05 17:23 50.02954 14.20442 10977 ft 357 kts 300°
2026-05-05 17:24 50.04256 14.17228 10364 ft 356 kts 300°
2026-05-05 17:24 50.05593 14.14074 10193 ft 342 kts 302°
2026-05-05 17:24 50.06930 14.11097 10061 ft 329 kts 303°
2026-05-05 17:24 50.08250 14.08269 9912 ft 313 kts 303°
2026-05-05 17:25 50.09509 14.05628 9715 ft 295 kts 304°
2026-05-05 17:25 50.10317 14.03943 9426 ft 292 kts 304°
2026-05-05 17:25 50.11935 14.00566 8842 ft 290 kts 304°
2026-05-05 17:25 50.13141 13.98048 8406 ft 289 kts 304°
2026-05-05 17:26 50.14342 13.95538 7986 ft 288 kts 304°
2026-05-05 17:26 50.15539 13.93036 7559 ft 288 kts 305°
2026-05-05 17:26 50.16709 13.90585 7339 ft 279 kts 305°
2026-05-05 17:26 50.17842 13.88203 7227 ft 268 kts 305°
2026-05-05 17:27 50.18930 13.85918 7131 ft 256 kts 304°
2026-05-05 17:27 50.19688 13.83505 6945 ft 245 kts 279°
2026-05-05 17:27 50.19602 13.80891 6604 ft 241 kts 248°
2026-05-05 17:27 50.18678 13.78831 6477 ft 227 kts 215°
2026-05-05 17:28 50.17276 13.77939 6346 ft 216 kts 183°
2026-05-05 17:28 50.15826 13.78398 6037 ft 215 kts 149°
2026-05-05 17:28 50.14801 13.80059 5672 ft 217 kts 115°
2026-05-05 17:28 50.14566 13.82350 5356 ft 218 kts 81°
2026-05-05 17:29 50.15211 13.84455 5072 ft 217 kts 48°
2026-05-05 17:29 50.16278 13.86099 4993 ft 221 kts 45°
2026-05-05 17:29 50.17385 13.87741 4987 ft 218 kts 45°
2026-05-05 17:29 50.18487 13.89369 5011 ft 216 kts 45°
2026-05-05 17:30 50.19588 13.90990 4989 ft 220 kts 44°
2026-05-05 17:30 50.20692 13.92625 4928 ft 216 kts 45°
2026-05-05 17:30 50.21721 13.94300 4572 ft 213 kts 54°
2026-05-05 17:30 50.22337 13.96352 4152 ft 207 kts 83°
2026-05-05 17:31 50.22326 13.97851 4051 ft 205 kts 94°
2026-05-05 17:31 50.21966 14.00702 3989 ft 192 kts 111°
2026-05-05 17:31 50.21384 14.02457 3988 ft 172 kts 121°
2026-05-05 17:31 50.20749 14.03912 4002 ft 150 kts 125°
2026-05-05 17:32 50.20168 14.05123 3985 ft 130 kts 126°
2026-05-05 17:32 50.19606 14.06292 3918 ft 137 kts 126°
2026-05-05 17:32 50.19033 14.07477 3744 ft 134 kts 126°
2026-05-05 17:32 50.18472 14.08637 3576 ft 133 kts 125°
2026-05-05 17:33 50.17906 14.09804 3419 ft 136 kts 124°
2026-05-05 17:33 50.17345 14.10968 3237 ft 136 kts 125°
2026-05-05 17:33 50.16772 14.12153 3061 ft 135 kts 124°
2026-05-05 17:33 50.16210 14.13319 2878 ft 138 kts 124°
2026-05-05 17:34 50.15627 14.14525 2762 ft 139 kts 124°
2026-05-05 17:34 50.15050 14.15716 2524 ft 134 kts 124°
2026-05-05 17:34 50.14483 14.16893 2354 ft 137 kts 124°
2026-05-05 17:34 50.13912 14.18074 2171 ft 134 kts 125°
2026-05-05 17:35 50.13366 14.19211 1996 ft 135 kts 124°
2026-05-05 17:35 50.12794 14.20376 1828 ft 131 kts 125°
2026-05-05 17:35 50.12249 14.21490 1697 ft 129 kts 125°
2026-05-05 17:35 50.11725 14.22601 1542 ft 124 kts 125°
2026-05-05 17:36 50.11209 14.23672 1327 ft 123 kts 125°
2026-05-05 17:36 50.10744 14.24649 1196 ft 124 kts 126°
2026-05-05 17:36 50.10274 14.25640 1186 ft 96 kts 127°
2026-05-05 17:36 50.09969 14.26261 1196 ft 51 kts 127°
2026-05-05 17:37 50.09795 14.26619 1206 ft 33 kts 126°
2026-05-05 17:37 50.09712 14.26786 1208 ft 24 kts 130°
2026-05-05 17:37 50.09605 14.27000 1206 ft 16 kts 126°
2026-05-05 17:37 50.09544 14.27133 1207 ft 15 kts 128°
2026-05-05 17:38 50.09479 14.27263 1206 ft 15 kts 123°
2026-05-05 17:38 50.09431 14.27384 1209 ft 12 kts 110°
2026-05-05 17:38 50.09458 14.27467 1210 ft 0 kts 34°